Tracking 29892 objects as of 21-Nov-2024
HD Live streaming from Space Station
objects crossing your sky now

METEOR 2-7 DEB

Track METEOR 2-7 DEB now!
10-day predictions


NORAD ID: 43302
Int'l Code: 1981-043Z
Perigee: 781.4 km
Apogee: 832.8 km
Inclination: 81.3 °
Period: 100.9 minutes
Semi major axis: 7178 km
RCS: Unknown
Launch date: May 14, 1981
Source: Commonwealth of Independent States (former USSR) (CIS)
Launch site: PLESETSK MISSILE AND SPACE COMPLEX (PKMTR)

Note: This is SATELLITE DEBRIS
Your satellite tracking list
Your tracking list is empty




NASA's NSSDC Master Catalog

Two Line Element Set (TLE):
1 43302U 81043Z   24322.32519926  .00010661  00000-0  42989-2 0  9996
2 43302  81.2582 278.1368 0035842 281.8833  77.8329 14.27544276448970
Source of the keplerian elements: AFSPC